TimeCST,TemperatureF,Dew PointF,Humidity,Sea Level PressureIn,VisibilityMPH,Wind Direction,Wind SpeedMPH,Gust SpeedMPH,PrecipitationIn,Events,Conditions,WindDirDegrees,DateUTC
12:15 AM,56.1,49.1,77,30.33,10.0,North,5.8,-,N/A,,Clear,360,2012-11-28 06:15:00
12:35 AM,55.8,49.3,79,30.32,10.0,North,5.8,-,N/A,,Clear,360,2012-11-28 06:35:00
12:55 AM,55.4,49.1,79,30.32,10.0,North,4.6,-,N/A,,Clear,360,2012-11-28 06:55:00
1:15 AM,55.4,49.1,79,30.32,10.0,North,5.8,-,N/A,,Clear,350,2012-11-28 07:15:00
1:35 AM,55.4,48.6,78,30.32,10.0,North,5.8,-,N/A,,Clear,350,2012-11-28 07:35:00
1:55 AM,55.0,48.2,78,30.32,7.0,North,6.9,-,N/A,,Clear,360,2012-11-28 07:55:00
2:15 AM,55.0,47.8,77,30.32,7.0,North,3.5,-,N/A,,Clear,360,2012-11-28 08:15:00
2:55 AM,54.1,47.5,78,30.32,10.0,North,3.5,-,N/A,,Clear,360,2012-11-28 08:55:00
3:15 AM,53.4,47.5,80,30.32,7.0,NNW,4.6,-,N/A,,Clear,340,2012-11-28 09:15:00
3:35 AM,52.7,47.7,83,30.32,7.0,NNW,5.8,-,N/A,,Clear,330,2012-11-28 09:35:00
3:55 AM,52.3,47.3,83,30.32,10.0,Calm,Calm,-,N/A,,Clear,0,2012-11-28 09:55:00
4:15 AM,52.0,46.9,83,30.33,7.0,NNW,4.6,-,N/A,,Clear,330,2012-11-28 10:15:00
4:35 AM,51.6,46.6,83,30.32,7.0,NNW,4.6,-,N/A,,Clear,330,2012-11-28 10:35:00
4:55 AM,51.3,46.4,83,30.32,7.0,North,3.5,-,N/A,,Clear,350,2012-11-28 10:55:00
5:15 AM,50.9,46.2,84,30.33,5.0,NNW,8.1,-,N/A,,Haze,340,2012-11-28 11:15:00
5:35 AM,50.9,45.9,83,30.33,7.0,North,8.1,-,N/A,,Clear,350,2012-11-28 11:35:00
5:55 AM,50.9,45.5,82,30.34,7.0,NNW,6.9,-,N/A,,Clear,340,2012-11-28 11:55:00
6:15 AM,50.4,45.1,82,30.35,7.0,North,5.8,-,N/A,,Clear,350,2012-11-28 12:15:00
6:35 AM,50.4,45.1,82,30.36,10.0,North,8.1,-,N/A,,Clear,350,2012-11-28 12:35:00
6:55 AM,50.2,45.0,82,30.37,10.0,North,5.8,-,N/A,,Clear,350,2012-11-28 12:55:00
7:15 AM,50.0,44.8,82,30.38,10.0,Calm,Calm,-,N/A,,Clear,0,2012-11-28 13:15:00
7:35 AM,50.0,45.0,83,30.39,7.0,NNW,5.8,-,N/A,,Clear,340,2012-11-28 13:35:00
7:55 AM,50.9,45.3,81,30.39,7.0,North,5.8,-,N/A,,Clear,360,2012-11-28 13:55:00
8:15 AM,52.0,45.7,79,30.39,7.0,North,8.1,-,N/A,,Clear,360,2012-11-28 14:15:00
8:35 AM,53.6,46.4,77,30.40,10.0,North,5.8,-,N/A,,Clear,360,2012-11-28 14:35:00
8:55 AM,54.9,46.8,74,30.41,7.0,North,5.8,-,N/A,,Clear,360,2012-11-28 14:55:00
9:15 AM,56.5,47.5,72,30.41,7.0,North,6.9,-,N/A,,Clear,350,2012-11-28 15:15:00
9:35 AM,57.9,48.2,70,30.41,7.0,North,6.9,-,N/A,,Clear,350,2012-11-28 15:35:00
9:55 AM,60.3,49.5,68,30.41,7.0,NNE,5.8,-,N/A,,Clear,20,2012-11-28 15:55:00
10:15 AM,61.5,50.0,66,30.41,7.0,NNE,4.6,-,N/A,,Clear,20,2012-11-28 16:15:00
10:35 AM,63.5,50.7,63,30.41,7.0,NNE,5.8,-,N/A,,Clear,20,2012-11-28 16:35:00
10:55 AM,65.1,51.8,62,30.40,7.0,NNE,5.8,-,N/A,,Clear,20,2012-11-28 16:55:00
11:15 AM,66.4,52.0,60,30.40,5.0,North,4.6,-,N/A,,Haze,360,2012-11-28 17:15:00
11:35 AM,67.8,50.9,55,30.39,5.0,NNE,4.6,-,N/A,,Haze,20,2012-11-28 17:35:00
11:55 AM,68.9,50.5,52,30.39,5.0,Calm,Calm,-,N/A,,Haze,0,2012-11-28 17:55:00
12:15 PM,69.1,49.6,50,30.38,7.0,Calm,Calm,-,N/A,,Clear,0,2012-11-28 18:15:00
12:35 PM,69.8,49.3,48,30.36,7.0,Calm,Calm,-,N/A,,Clear,0,2012-11-28 18:35:00
12:55 PM,70.7,49.3,47,30.35,7.0,Calm,Calm,-,N/A,,Clear,0,2012-11-28 18:55:00
1:15 PM,71.6,49.3,45,30.33,5.0,Calm,Calm,-,N/A,,Haze,0,2012-11-28 19:15:00
1:35 PM,71.8,48.7,44,30.31,7.0,Calm,Calm,-,N/A,,Clear,0,2012-11-28 19:35:00
1:55 PM,72.0,49.3,45,30.30,7.0,Calm,Calm,-,N/A,,Clear,0,2012-11-28 19:55:00
2:15 PM,73.2,49.3,43,30.29,7.0,ENE,3.5,-,N/A,,Clear,60,2012-11-28 20:15:00
2:35 PM,73.0,49.5,43,30.28,7.0,ENE,4.6,-,N/A,,Clear,60,2012-11-28 20:35:00
2:55 PM,73.8,49.3,42,30.28,5.0,Calm,Calm,-,N/A,,Haze,0,2012-11-28 20:55:00
3:15 PM,74.3,49.8,42,30.27,7.0,Calm,Calm,-,N/A,,Clear,0,2012-11-28 21:15:00
3:35 PM,75.0,50.0,41,30.26,7.0,ENE,3.5,-,N/A,,Clear,60,2012-11-28 21:35:00
3:55 PM,75.2,51.1,43,30.26,5.0,NE,4.6,-,N/A,,Haze,50,2012-11-28 21:55:00
4:15 PM,75.2,52.9,46,30.26,5.0,East,6.9,-,N/A,,Haze,90,2012-11-28 22:15:00
4:35 PM,74.1,52.5,47,30.26,7.0,East,5.8,-,N/A,,Clear,80,2012-11-28 22:35:00
4:55 PM,73.4,54.3,51,30.26,7.0,East,9.2,-,N/A,,Clear,100,2012-11-28 22:55:00
5:15 PM,72.5,54.5,53,30.26,7.0,East,10.4,-,N/A,,Clear,100,2012-11-28 23:15:00
5:55 PM,69.4,55.4,61,30.26,7.0,East,9.2,-,N/A,,Clear,90,2012-11-28 23:55:00
6:15 PM,68.5,55.9,64,30.26,7.0,East,10.4,-,N/A,,Clear,90,2012-11-29 00:15:00
6:35 PM,67.8,56.7,67,30.26,7.0,East,10.4,-,N/A,,Clear,80,2012-11-29 00:35:00
6:55 PM,66.9,57.2,71,30.27,7.0,East,9.2,-,N/A,,Clear,90,2012-11-29 00:55:00
7:15 PM,66.2,57.2,73,30.27,7.0,East,8.1,-,N/A,,Clear,80,2012-11-29 01:15:00
7:55 PM,64.8,57.2,76,30.28,7.0,East,5.8,-,N/A,,Clear,80,2012-11-29 01:55:00
8:15 PM,63.7,56.8,78,30.28,10.0,ENE,4.6,-,N/A,,Clear,70,2012-11-29 02:15:00
8:35 PM,63.0,56.8,80,30.28,7.0,ENE,3.5,-,N/A,,Clear,70,2012-11-29 02:35:00
8:55 PM,62.6,57.2,82,30.29,7.0,NE,4.6,-,N/A,,Clear,50,2012-11-29 02:55:00
9:15 PM,62.1,56.8,83,30.29,7.0,NE,4.6,-,N/A,,Clear,50,2012-11-29 03:15:00
9:35 PM,61.7,56.8,84,30.29,7.0,NE,4.6,-,N/A,,Clear,50,2012-11-29 03:35:00
9:55 PM,61.7,57.2,85,30.29,7.0,NE,4.6,-,N/A,,Clear,40,2012-11-29 03:55:00
10:15 PM,61.2,57.0,86,30.29,5.0,NE,4.6,-,N/A,,Clear,40,2012-11-29 04:15:00
10:35 PM,60.8,57.0,87,30.28,5.0,NE,4.6,-,N/A,,Clear,50,2012-11-29 04:35:00
10:55 PM,60.8,57.2,88,30.28,5.0,NE,5.8,-,N/A,,Clear,50,2012-11-29 04:55:00
11:15 PM,60.4,56.8,88,30.27,5.0,NE,4.6,-,N/A,,Clear,50,2012-11-29 05:15:00
11:35 PM,59.9,56.7,89,30.26,5.0,ENE,3.5,-,N/A,,Clear,60,2012-11-29 05:35:00
11:55 PM,59.4,56.3,90,30.25,5.0,Calm,Calm,-,N/A,,Clear,0,2012-11-29 05:55:00